Greenville-Spartanburg International Airport (GSP)

 

Airport Diagram
Current Weather/Forecast (VFR Conditions)
METAR KGSP 220453Z AUTO 22007KT 10SM CLR 09/06 A3015 RMK AO2 SLP207 T00940056 401830028
TAF KGSP 212327Z 2200/2224 20005KT P6SM SCT120 BKN200 FM221400 23008KT P6SM OVC150 FM221800 23010G17KT P6SM OVC120 FM222100 22009KT P6SM SCT050 OVC100

All Charts
General
Chart Name Download
AIRPORT DIAGRAM
TAKEOFF MINIMUMS
ALTERNATE MINIMUMS

Departures
Chart Name Download
BIMMR TWO (RNAV)
BWALL TWO (RNAV)

Arrivals
Chart Name Download
JUNNR THREE (RNAV)
MCHLN TWO (RNAV)
RCTOR TWO (RNAV)
WORXS TWO (RNAV)

Approaches
Chart Name Download
ILS OR LOC RWY 04
ILS OR LOC RWY 22
ILS RWY 04 (SA CAT I)
ILS RWY 04 (CAT II - III)
RNAV (GPS) RWY 04
RNAV (GPS) RWY 22


Inbound Traffic (Arrivals)

No inbound traffic.


Outbound Traffic (Departures)

No outbound traffic.